Regional Weather Roundup
Issued by NWS

Home | Current Version | Previous Version | Text Only | Print | Product List | Glossary On
Versions: 1 2 3 4 5 6 7 8 9 10 11 12 13 14 15 16 17 18 19 20 21 22 23 24 25 26 27 28 29 30 31 32 33 34 35 36 37 38 39 40 41 42 43 44 45 46 47 48 49 50
000
ASUS43 KIND 300659
RWRIN

WEATHER ROUNDUP FOR INDIANA
NATIONAL WEATHER SERVICE INDIANAPOLIS IN
300 AM EDT FRI SEP 30 2016

NOTE: "FAIR" INDICATES FEW OR NO CLOUDS BELOW 12,000 FEET WITH NO
SIGNIFICANT WEATHER AND/OR OBSTRUCTIONS TO VISIBILITY.

* - STATION DOES NOT REPORT WEATHER SUCH AS PRECIPITATION OR FOG.

+ - STATION NOT QUALITY CONTROLLED BY THE NATIONAL WEATHER SERVICE.
    USE DATA WITH CAUTION...ESPECIALLY DEWPOINT AND RELATIVE
    HUMIDITY OBSERVATIONS.

INZ001>003-010>013-019-020-300800-
NORTHWEST INDIANA

CITY           SKY/WX    TMP DP  RH WIND       PRES   REMARKS

$$

LMZ046-743>745-300800-
SOUTHERN LAKE MICHIGAN

STATION/POSITION TIME  TEMP    WIND        PRES    WAVE
                       AIR SEA DIR/SP/G            HT
                 (UTC) (F)     (DEG/KT/KT) (MB)    (FT)
BURNS HARBOR     0640   62      50/ 21/ 25 1020.7F
MICHIGAN CITY    0630   60      20/ 21/ 22   N/A
5NW MICH CITY    0650   61 64   40/ 17/ 21   N/A     6

$$

INZ004-005-014>016-021>024-300800-
NORTH CENTRAL INDIANA

CITY           SKY/WX    TMP DP  RH WIND       PRES   REMARKS
GOSHEN         CLOUDY    61  57  87 NE9       30.12R
PERU/GRISSOM   CLOUDY    59  59 100 NE7       30.07F
SOUTH BEND     CLOUDY    58  58 100 NE8       30.14R

$$

INZ006>009-017-018-025>027-300800-
NORTHEAST INDIANA

CITY           SKY/WX    TMP DP  RH WIND       PRES   REMARKS
ANGOLA *+        N/A     61  48  63 NE7       30.12S
FORT WAYNE     CLOUDY    61  59  93 E7        30.10S
KENDALLVILLE + CLOUDY    60  59  97 E8        30.12S

$$

INZ028-029-035-036-043>045-051>053-300800-
WEST CENTRAL INDIANA

CITY           SKY/WX    TMP DP  RH WIND       PRES   REMARKS
CRAWFORDSVL +  CLOUDY    58  58 100 N5        30.07F
GREENCASTLE +  CLOUDY    57  57 100 N5        30.07S
LAFAYETTE      CLOUDY    59  59 100 NE9       30.08S
TERRE HAUTE    LGT RAIN  59  56  89 N8        30.07F

$$

INZ030>032-037>040-046>048-054>057-064-065-300800-
CENTRAL INDIANA

CITY           SKY/WX    TMP DP  RH WIND       PRES   REMARKS
INDIANAPOLIS   LGT RAIN  60  58  92 N12       30.04F
-EAGLE CREEK   CLOUDY    62  57  83 NE10      30.05F
KOKOMO *+      CLOUDY    60  59  96 NE6       30.09S
MT COMFORT *+  CLOUDY    59  57  94 N7        30.04F
SHELBYVILLE    CLOUDY    61  56  83 N5        30.02F

$$

INZ033-034-041-042-049-050-058-059-300800-
EAST CENTRAL INDIANA

CITY           SKY/WX    TMP DP  RH WIND       PRES   REMARKS
MUNCIE         CLOUDY    61  58  90 NE7       30.06F

$$

INZ060-061-067>069-081>083-085>088-300800-
SOUTHWEST INDIANA

CITY           SKY/WX    TMP DP  RH WIND       PRES   REMARKS
EVANSVILLE     CLOUDY    56  52  86 W5        30.06F
HUNTINGBURG *+   N/A     55  52  88 CALM      30.04F

$$

INZ062-063-066-070>080-084-089>092-300800-
SOUTH CENTRAL AND SOUTHEAST INDIANA

CITY           SKY/WX    TMP DP  RH WIND       PRES   REMARKS
BLOOMINGTON    LGT RAIN  57  54  89 CALM      30.04F
MADISON *+     CLOUDY    55  54  94 CALM      30.06S
SEYMOUR +      CLOUDY    57  57 100 CALM      30.03F FOG

$$




USA.gov is the U.S. government's official web portal to all federal, state and local government web resources and services.